Terminal Aerodrome Forecast
Issued by NWS Portland, ME

Home | Current Version | Previous Version | Text Only | Print | Product List | Glossary On
Versions: 1 2 3 4 5 6 7 8 9 10 11 12 13 14 15 16 17 18
000
FTUS41 KGYX 051120
TAFPWM
TAF
KPWM 051120Z 0512/0612 00000KT 6SM BR SKC
     FM051230 30004KT P6SM SKC
     FM051600 24009KT P6SM SCT050=

USA.gov is the U.S. government's official web portal to all federal, state and local government web resources and services.